Time,TemperatureF,DewpointF,PressureIn,WindDirection,WindDirectionDegrees,WindSpeedMPH,WindSpeedGustMPH,Humidity,HourlyPrecipIn,Conditions,Clouds,dailyrainin,SoftwareType,DateUTC
2013-06-02 00:01:00,84.0,33.0,30.03,South,181,13.0,19.0,16,0.00,,,0.00,,2013-06-02 06:01:00,
2013-06-02 00:12:00,83.0,35.0,30.03,South,190,8.0,22.0,18,0.00,,,0.00,,2013-06-02 06:12:00,
2013-06-02 00:21:00,83.0,35.0,30.03,South,190,8.0,22.0,18,0.00,,,0.00,,2013-06-02 06:21:00,
2013-06-02 00:32:00,82.0,38.0,30.03,SSW,198,9.0,18.0,21,0.00,,,0.00,,2013-06-02 06:32:00,
2013-06-02 00:42:00,82.0,38.0,30.03,SSW,198,9.0,18.0,21,0.00,,,0.00,,2013-06-02 06:42:00,
2013-06-02 00:52:00,81.0,39.0,30.04,South,190,8.0,19.0,22,0.00,,,0.00,,2013-06-02 06:52:00,
2013-06-02 01:01:00,81.0,40.0,30.04,SSE,166,8.0,21.0,23,0.00,,,0.00,,2013-06-02 07:01:00,
2013-06-02 01:11:00,81.0,40.0,30.04,SSE,166,8.0,21.0,23,0.00,,,0.00,,2013-06-02 07:11:00,
2013-06-02 01:21:00,80.0,41.0,30.04,SSW,211,8.0,17.0,25,0.00,,,0.00,,2013-06-02 07:21:00,
2013-06-02 01:31:00,79.0,41.0,30.03,SSW,210,9.0,19.0,26,0.00,,,0.00,,2013-06-02 07:31:00,
2013-06-02 01:42:00,79.0,41.0,30.03,SW,222,10.0,18.0,26,0.00,,,0.00,,2013-06-02 07:42:00,
2013-06-02 01:52:00,79.0,41.0,30.03,SW,222,10.0,18.0,26,0.00,,,0.00,,2013-06-02 07:52:00,
2013-06-02 02:01:00,78.0,41.0,30.04,West,273,9.0,19.0,27,0.00,,,0.00,,2013-06-02 08:01:00,
2013-06-02 02:11:00,78.0,41.0,30.04,West,273,9.0,19.0,27,0.00,,,0.00,,2013-06-02 08:11:00,
2013-06-02 02:21:00,77.0,41.0,30.03,South,188,8.0,16.0,28,0.00,,,0.00,,2013-06-02 08:21:00,
2013-06-02 02:31:00,77.0,41.0,30.03,South,184,7.0,17.0,28,0.00,,,0.00,,2013-06-02 08:31:00,
2013-06-02 02:41:00,77.0,41.0,30.03,SE,146,8.0,15.0,28,0.00,,,0.00,,2013-06-02 08:41:00,
2013-06-02 02:52:00,77.0,41.0,30.03,SE,146,8.0,15.0,28,0.00,,,0.00,,2013-06-02 08:52:00,
2013-06-02 03:01:00,77.0,42.0,30.03,SW,224,7.0,14.0,29,0.00,,,0.00,,2013-06-02 09:01:00,
2013-06-02 03:11:00,77.0,42.0,30.03,SW,224,7.0,14.0,29,0.00,,,0.00,,2013-06-02 09:11:00,
2013-06-02 03:21:00,77.0,43.0,30.03,South,184,6.0,14.0,30,0.00,,,0.00,,2013-06-02 09:21:00,
2013-06-02 03:33:00,77.0,43.0,30.03,SSW,198,6.0,14.0,30,0.00,,,0.00,,2013-06-02 09:33:00,
2013-06-02 03:42:00,77.0,43.0,30.03,SSW,198,6.0,14.0,30,0.00,,,0.00,,2013-06-02 09:42:00,
2013-06-02 03:53:00,77.0,44.0,30.04,SSW,200,7.0,14.0,31,0.00,,,0.00,,2013-06-02 09:53:00,
2013-06-02 04:02:00,77.0,45.0,30.04,SW,218,8.0,14.0,32,0.00,,,0.00,,2013-06-02 10:02:00,
2013-06-02 04:12:00,77.0,45.0,30.04,SW,218,8.0,14.0,32,0.00,,,0.00,,2013-06-02 10:12:00,
2013-06-02 04:22:00,76.0,45.0,30.04,SW,221,6.0,11.0,33,0.00,,,0.00,,2013-06-02 10:22:00,
2013-06-02 04:32:00,76.0,46.0,30.04,South,174,6.0,10.0,34,0.00,,,0.00,,2013-06-02 10:32:00,
2013-06-02 04:42:00,76.0,46.0,30.04,South,174,6.0,10.0,34,0.00,,,0.00,,2013-06-02 10:42:00,
2013-06-02 04:52:00,76.0,46.0,30.05,South,184,6.0,10.0,35,0.00,,,0.00,,2013-06-02 10:52:00,
2013-06-02 05:02:00,76.0,47.0,30.05,SSW,198,6.0,13.0,36,0.00,,,0.00,,2013-06-02 11:02:00,
2013-06-02 05:12:00,76.0,47.0,30.05,SSW,198,6.0,13.0,36,0.00,,,0.00,,2013-06-02 11:12:00,
2013-06-02 05:21:00,75.0,46.0,30.05,SSW,203,6.0,13.0,36,0.00,,,0.00,,2013-06-02 11:21:00,
2013-06-02 05:32:00,75.0,46.0,30.05,South,186,7.0,11.0,36,0.00,,,0.00,,2013-06-02 11:32:00,
2013-06-02 05:42:00,75.0,46.0,30.05,South,186,7.0,11.0,36,0.00,,,0.00,,2013-06-02 11:42:00,
2013-06-02 05:52:00,75.0,47.0,30.06,SSW,211,6.0,10.0,37,0.00,,,0.00,,2013-06-02 11:52:00,
2013-06-02 06:01:00,74.0,46.0,30.07,SW,225,6.0,11.0,37,0.00,,,0.00,,2013-06-02 12:01:00,
2013-06-02 06:11:00,74.0,46.0,30.07,SW,225,6.0,11.0,37,0.00,,,0.00,,2013-06-02 12:11:00,
2013-06-02 06:21:00,74.0,46.0,30.08,SW,215,4.0,12.0,37,0.00,,,0.00,,2013-06-02 12:21:00,
2013-06-02 06:31:00,74.0,47.0,30.08,South,180,3.0,10.0,38,0.00,,,0.00,,2013-06-02 12:31:00,
2013-06-02 06:42:00,74.0,47.0,30.08,South,180,3.0,10.0,38,0.00,,,0.00,,2013-06-02 12:42:00,
2013-06-02 06:52:00,74.0,47.0,30.09,WSW,239,5.0,9.0,38,0.00,,,0.00,,2013-06-02 12:52:00,
2013-06-02 07:01:00,74.0,47.0,30.09,SSW,197,5.0,9.0,39,0.00,,,0.00,,2013-06-02 13:01:00,
2013-06-02 07:11:00,74.0,47.0,30.09,SSW,197,5.0,9.0,39,0.00,,,0.00,,2013-06-02 13:11:00,
2013-06-02 07:21:00,74.0,47.0,30.09,SW,225,6.0,9.0,39,0.00,,,0.00,,2013-06-02 13:21:00,
2013-06-02 07:32:00,75.0,48.0,30.09,South,186,6.0,11.0,39,0.00,,,0.00,,2013-06-02 13:32:00,
2013-06-02 07:42:00,75.0,48.0,30.09,South,186,6.0,11.0,39,0.00,,,0.00,,2013-06-02 13:42:00,
2013-06-02 07:52:00,77.0,49.0,30.09,SSE,152,11.0,19.0,37,0.00,,,0.00,,2013-06-02 13:52:00,
2013-06-02 08:01:00,78.0,49.0,30.10,SSE,167,11.0,21.0,36,0.00,,,0.00,,2013-06-02 14:01:00,
2013-06-02 08:11:00,78.0,49.0,30.10,SSE,167,11.0,21.0,36,0.00,,,0.00,,2013-06-02 14:11:00,
2013-06-02 08:21:00,78.0,49.0,30.10,South,177,11.0,20.0,36,0.00,,,0.00,,2013-06-02 14:21:00,
2013-06-02 08:32:00,78.0,48.0,30.10,SSE,150,15.0,23.0,35,0.00,,,0.00,,2013-06-02 14:32:00,
2013-06-02 08:42:00,78.0,48.0,30.10,SSE,150,15.0,23.0,35,0.00,,,0.00,,2013-06-02 14:42:00,
2013-06-02 08:52:00,79.0,50.0,30.10,SE,143,11.0,25.0,36,0.00,,,0.00,,2013-06-02 14:52:00,
2013-06-02 09:01:00,80.0,50.0,30.10,South,180,13.0,22.0,35,0.00,,,0.00,,2013-06-02 15:01:00,
2013-06-02 09:11:00,80.0,50.0,30.10,South,180,13.0,22.0,35,0.00,,,0.00,,2013-06-02 15:11:00,
2013-06-02 09:21:00,80.0,49.0,30.10,South,177,11.0,21.0,34,0.00,,,0.00,,2013-06-02 15:21:00,
2013-06-02 09:32:00,82.0,51.0,30.10,SE,141,9.0,19.0,34,0.00,,,0.00,,2013-06-02 15:32:00,
2013-06-02 09:43:00,81.0,49.0,30.10,SSE,165,12.0,22.0,33,0.00,,,0.00,,2013-06-02 15:43:00,
2013-06-02 09:53:00,81.0,49.0,30.10,SSE,165,12.0,22.0,33,0.00,,,0.00,,2013-06-02 15:53:00,
2013-06-02 10:03:00,81.0,49.0,30.10,SE,127,10.0,20.0,33,0.00,,,0.00,,2013-06-02 16:03:00,
2013-06-02 10:13:00,81.0,49.0,30.10,SE,127,10.0,20.0,33,0.00,,,0.00,,2013-06-02 16:13:00,
2013-06-02 10:23:00,82.0,49.0,30.10,South,172,14.0,23.0,32,0.00,,,0.00,,2013-06-02 16:23:00,
2013-06-02 10:33:00,83.0,49.0,30.10,SSE,158,9.0,21.0,31,0.00,,,0.00,,2013-06-02 16:33:00,
2013-06-02 10:42:00,83.0,49.0,30.10,SSE,158,9.0,21.0,31,0.00,,,0.00,,2013-06-02 16:42:00,
2013-06-02 10:52:00,84.0,48.0,30.10,SSW,200,11.0,20.0,29,0.00,,,0.00,,2013-06-02 16:52:00,
2013-06-02 11:02:00,85.0,48.0,30.10,SE,142,9.0,18.0,28,0.00,,,0.00,,2013-06-02 17:02:00,
2013-06-02 11:12:00,85.0,48.0,30.10,SE,142,9.0,18.0,28,0.00,,,0.00,,2013-06-02 17:12:00,
2013-06-02 11:22:00,85.0,49.0,30.09,SW,235,15.0,23.0,29,0.00,,,0.00,,2013-06-02 17:22:00,
2013-06-02 11:32:00,86.0,49.0,30.09,East,101,7.0,19.0,28,0.00,,,0.00,,2013-06-02 17:32:00,
2013-06-02 11:42:00,87.0,50.0,30.08,SW,218,9.0,17.0,28,0.00,,,0.00,,2013-06-02 17:42:00,
2013-06-02 11:52:00,87.0,50.0,30.08,SW,218,9.0,17.0,28,0.00,,,0.00,,2013-06-02 17:52:00,
2013-06-02 12:01:00,88.0,50.0,30.08,South,183,10.0,20.0,27,0.00,,,0.00,,2013-06-02 18:01:00,
2013-06-02 12:11:00,88.0,50.0,30.07,South,177,9.0,17.0,27,0.00,,,0.00,,2013-06-02 18:11:00,
2013-06-02 12:21:00,88.0,50.0,30.07,South,177,9.0,17.0,27,0.00,,,0.00,,2013-06-02 18:21:00,
2013-06-02 12:32:00,89.0,50.0,30.07,SE,145,9.0,21.0,26,0.00,,,0.00,,2013-06-02 18:32:00,
2013-06-02 12:42:00,89.0,49.0,30.06,SSE,160,10.0,17.0,25,0.00,,,0.00,,2013-06-02 18:42:00,
2013-06-02 12:52:00,89.0,49.0,30.06,SSE,160,10.0,17.0,25,0.00,,,0.00,,2013-06-02 18:52:00,
2013-06-02 13:01:00,90.0,48.0,30.05,ESE,108,6.0,19.0,24,0.00,,,0.00,,2013-06-02 19:01:00,
2013-06-02 13:11:00,90.0,48.0,30.05,ESE,108,6.0,19.0,24,0.00,,,0.00,,2013-06-02 19:11:00,
2013-06-02 13:21:00,91.0,49.0,30.05,SW,225,9.0,18.0,24,0.00,,,0.00,,2013-06-02 19:21:00,
2013-06-02 13:32:00,92.0,48.0,30.04,SSE,163,8.0,19.0,22,0.00,,,0.00,,2013-06-02 19:32:00,
2013-06-02 13:42:00,92.0,48.0,30.04,SSE,163,8.0,19.0,22,0.00,,,0.00,,2013-06-02 19:42:00,
2013-06-02 13:52:00,91.0,46.0,30.04,South,191,8.0,18.0,21,0.00,,,0.00,,2013-06-02 19:52:00,
2013-06-02 14:02:00,92.0,45.0,30.03,SSE,152,9.0,19.0,20,0.00,,,0.00,,2013-06-02 20:02:00,
2013-06-02 14:11:00,92.0,45.0,30.03,SSE,152,9.0,19.0,20,0.00,,,0.00,,2013-06-02 20:11:00,
2013-06-02 14:21:00,93.0,45.0,30.02,SSE,163,10.0,19.0,19,0.00,,,0.00,,2013-06-02 20:21:00,
2013-06-02 14:32:00,93.0,46.0,30.01,SSE,163,10.0,17.0,20,0.00,,,0.00,,2013-06-02 20:32:00,
2013-06-02 14:42:00,93.0,46.0,30.01,SSE,163,10.0,17.0,20,0.00,,,0.00,,2013-06-02 20:42:00,
2013-06-02 14:52:00,94.0,45.0,30.00,South,176,10.0,18.0,19,0.00,,,0.00,,2013-06-02 20:52:00,
2013-06-02 15:01:00,94.0,44.0,29.99,SW,215,5.0,15.0,18,0.00,,,0.00,,2013-06-02 21:01:00,
2013-06-02 15:11:00,94.0,44.0,29.99,SW,215,5.0,15.0,18,0.00,,,0.00,,2013-06-02 21:11:00,
2013-06-02 15:21:00,94.0,44.0,29.98,SE,139,8.0,14.0,18,0.00,,,0.00,,2013-06-02 21:21:00,
2013-06-02 15:33:00,94.0,43.0,29.98,SSW,212,8.0,15.0,17,0.00,,,0.00,,2013-06-02 21:33:00,
2013-06-02 15:42:00,94.0,43.0,29.98,SSW,212,8.0,15.0,17,0.00,,,0.00,,2013-06-02 21:42:00,
2013-06-02 15:53:00,94.0,44.0,29.96,SE,124,7.0,14.0,18,0.00,,,0.00,,2013-06-02 21:53:00,
2013-06-02 16:03:00,96.0,43.0,29.96,SSW,195,8.0,13.0,16,0.00,,,0.00,,2013-06-02 22:03:00,
2013-06-02 16:12:00,96.0,43.0,29.96,SSW,195,8.0,13.0,16,0.00,,,0.00,,2013-06-02 22:12:00,
2013-06-02 16:23:00,96.0,44.0,29.94,SSE,158,8.0,12.0,17,0.00,,,0.00,,2013-06-02 22:23:00,
2013-06-02 16:33:00,96.0,44.0,29.93,SW,217,5.0,13.0,17,0.00,,,0.00,,2013-06-02 22:33:00,
2013-06-02 16:42:00,96.0,44.0,29.93,SW,217,5.0,13.0,17,0.00,,,0.00,,2013-06-02 22:42:00,
2013-06-02 16:52:00,97.0,40.0,29.92,South,186,10.0,15.0,14,0.00,,,0.00,,2013-06-02 22:52:00,
2013-06-02 17:02:00,97.0,40.0,29.91,SSE,165,8.0,12.0,14,0.00,,,0.00,,2013-06-02 23:02:00,
2013-06-02 17:12:00,97.0,40.0,29.91,SSE,165,8.0,12.0,14,0.00,,,0.00,,2013-06-02 23:12:00,
2013-06-02 17:22:00,97.0,42.0,29.89,SW,221,9.0,13.0,15,0.00,,,0.00,,2013-06-02 23:22:00,
2013-06-02 17:32:00,96.0,41.0,29.88,South,183,7.0,16.0,15,0.00,,,0.00,,2013-06-02 23:32:00,
2013-06-02 17:42:00,96.0,41.0,29.88,South,183,7.0,16.0,15,0.00,,,0.00,,2013-06-02 23:42:00,
2013-06-02 17:52:00,95.0,42.0,29.87,SSE,150,7.0,11.0,16,0.00,,,0.00,,2013-06-02 23:52:00,
2013-06-02 18:01:00,94.0,43.0,29.86,South,172,5.0,9.0,17,0.00,,,0.00,,2013-06-03 00:01:00,
2013-06-02 18:11:00,94.0,43.0,29.86,SE,135,4.0,9.0,17,0.00,,,0.00,,2013-06-03 00:11:00,
2013-06-02 18:21:00,94.0,43.0,29.86,SE,135,4.0,9.0,17,0.00,,,0.00,,2013-06-03 00:21:00,
2013-06-02 18:32:00,93.0,43.0,29.87,SSW,212,4.0,10.0,18,0.00,,,0.00,,2013-06-03 00:32:00,
2013-06-02 18:42:00,93.0,46.0,29.87,SSE,165,4.0,8.0,20,0.00,,,0.00,,2013-06-03 00:42:00,
2013-06-02 18:52:00,93.0,46.0,29.87,SSE,165,4.0,8.0,20,0.00,,,0.00,,2013-06-03 00:52:00,
2013-06-02 19:01:00,93.0,47.0,29.88,SSW,205,4.0,9.0,21,0.00,,,0.00,,2013-06-03 01:01:00,
2013-06-02 19:11:00,93.0,47.0,29.88,SSW,205,4.0,9.0,21,0.00,,,0.00,,2013-06-03 01:11:00,
2013-06-02 19:21:00,85.0,53.0,29.91,SSW,193,13.0,33.0,34,0.00,,,0.00,,2013-06-03 01:21:00,
2013-06-02 19:32:00,83.0,52.0,29.91,SSE,160,11.0,26.0,35,0.00,,,0.00,,2013-06-03 01:32:00,
2013-06-02 19:42:00,83.0,52.0,29.91,SSE,160,11.0,26.0,35,0.00,,,0.00,,2013-06-03 01:42:00,
2013-06-02 19:52:00,83.0,52.0,29.91,SSW,200,12.0,24.0,35,0.00,,,0.00,,2013-06-03 01:52:00,
2013-06-02 20:02:00,82.0,53.0,29.92,South,187,13.0,23.0,37,0.00,,,0.00,,2013-06-03 02:02:00,
2013-06-02 20:12:00,82.0,53.0,29.92,South,187,13.0,23.0,37,0.00,,,0.00,,2013-06-03 02:12:00,
2013-06-02 20:22:00,80.0,55.0,29.92,SSW,203,9.0,21.0,42,0.00,,,0.00,,2013-06-03 02:22:00,
2013-06-02 20:32:00,80.0,53.0,29.91,SSE,163,8.0,23.0,39,0.00,,,0.00,,2013-06-03 02:32:00,
2013-06-02 20:42:00,80.0,53.0,29.91,SSE,163,8.0,23.0,39,0.00,,,0.00,,2013-06-03 02:42:00,
2013-06-02 20:52:00,79.0,51.0,29.91,SSE,158,12.0,20.0,38,0.00,,,0.00,,2013-06-03 02:52:00,
2013-06-02 21:02:00,79.0,51.0,29.92,SE,143,12.0,25.0,38,0.00,,,0.00,,2013-06-03 03:02:00,
2013-06-02 21:12:00,79.0,50.0,29.94,South,186,7.0,21.0,37,0.00,,,0.00,,2013-06-03 03:12:00,
2013-06-02 21:22:00,79.0,50.0,29.94,South,186,7.0,21.0,37,0.00,,,0.00,,2013-06-03 03:22:00,
2013-06-02 21:33:00,79.0,50.0,29.95,WSW,238,14.0,21.0,37,0.00,,,0.00,,2013-06-03 03:33:00,
2013-06-02 21:43:00,79.0,50.0,29.95,WSW,238,14.0,21.0,37,0.00,,,0.00,,2013-06-03 03:43:00,
2013-06-02 21:53:00,78.0,50.0,29.97,South,181,10.0,22.0,38,0.00,,,0.00,,2013-06-03 03:53:00,
2013-06-02 22:03:00,78.0,50.0,29.97,South,181,9.0,16.0,38,0.00,,,0.00,,2013-06-03 04:03:00,
2013-06-02 22:12:00,78.0,50.0,29.97,South,181,9.0,16.0,38,0.00,,,0.00,,2013-06-03 04:12:00,
2013-06-02 22:23:00,78.0,50.0,29.98,SW,225,9.0,16.0,38,0.00,,,0.00,,2013-06-03 04:23:00,
2013-06-02 22:33:00,77.0,50.0,29.99,SW,217,7.0,17.0,39,0.00,,,0.00,,2013-06-03 04:33:00,
2013-06-02 22:42:00,77.0,50.0,29.99,SW,217,7.0,17.0,39,0.00,,,0.00,,2013-06-03 04:42:00,
2013-06-02 22:53:00,77.0,51.0,29.98,SE,142,6.0,14.0,41,0.00,,,0.00,,2013-06-03 04:53:00,
2013-06-02 23:02:00,76.0,51.0,29.99,SSE,158,13.0,26.0,42,0.00,,,0.00,,2013-06-03 05:02:00,
2013-06-02 23:12:00,75.0,52.0,30.00,SE,136,12.0,25.0,45,0.00,,,0.00,,2013-06-03 05:12:00,
2013-06-02 23:22:00,75.0,52.0,30.00,SE,136,12.0,25.0,45,0.00,,,0.00,,2013-06-03 05:22:00,
2013-06-02 23:32:00,75.0,51.0,30.01,SSW,205,13.0,28.0,43,0.00,,,0.00,,2013-06-03 05:32:00,
2013-06-02 23:42:00,75.0,51.0,30.01,SSW,205,13.0,28.0,43,0.00,,,0.00,,2013-06-03 05:42:00,
2013-06-02 23:52:00,74.0,51.0,30.01,SSW,210,11.0,24.0,44,0.00,,,0.00,,2013-06-03 05:52:00,